Location: Marcé
(47.5801°N, 0.3280°W)
Time: 09:35:49
(UTC+01:00)

BlueWalker 3 - Pass Details

Date: 02 December 2022
Orbit: 499 x 517 km, 53.2° (Epoch: 29 January)

Event Time Altitude Azimuth Distance (km) Brightness Sun altitude
Rises 20:10:29 0° 295° (WNW) 2,627 6.5 -29.3°
Reaches altitude 10° 20:12:46 10° 301° (WNW) 1,736 5.3 -29.7°
Enters shadow 20:14:02 19° 309° (NW) 1,265 4.4 -29.9°
